STARLINK-1730, 46563

Orbit data source: Space-Track

STARLINK-1730, 46563 is a payload satellite owned by SpaceX/Seattle (US) in LEO that was launched on Tue, 06 Oct 2020 UTC via an FALCON 9 launch vehicle from the Air Force Eastern Test Range (AFETR). Payload-class satellites include a variety of spacecraft equipped with specific instruments for various scientific and technological missions. These include communications satellites like Starlink; space stations such as the ISS; scientific satellites like the Hubble; Earth observation satellites from companies like Planet Labs, Umbra, and HawkEye 360; GPS; miniature CubeSats for education and research; and military/defense satellites.

Not visible in the next 10 days
Identifier
46563, 2020-070AH
Orbit
LEO
Country
Flag of USUS
Related business
Manufacturer
SpaceX/Seattle
Mission
Partially operational Commercial Communications
Bus & Motor
STARLINK, Unknown motor
Mass
260 kg wet, ~248 kg dry
Launch date (UTC)
2020-10-06 (6 years ago)
Launch vehicle
FALCON 9
Launch site
Air Force Eastern Test Range (AFETR)
Object type
Payload
Rocket body
Debris
Shape & HBR
Box + 1 Pan, 10.1 m
Radar Cross Section
13.562 m², Large (>1 m²)

Expand to show TLE details & history
Last TLE update: 18 hours ago

TLE from 18 hours ago
0 STARLINK-1730
1 46563U 20070AH  26169.75139645  .00100049  00000-0  10320-2 0  9999
2 46563  53.0249 354.9830 0002714 295.1750  64.8983 15.64031445315970
Epoch: 2026-06-18T18:02Z
TLE epoch observation values (Epoch: 2026-06-18T18:02:00.653Z)
Latitude
0.00007°
Longitude
177.4901°
Altitude
376.147 km
Speed
7.686 km/s
True Right ascension
23h 39m 55s
True Declination
0° 00' 00"
Sunlit
Object was in daylight at epoch
Visualization orbit readout
Latitude
Unknown
Longitude
Unknown
Altitude
Unknown
Speed
Unknown
Apparent Right ascension
Unknown
Apparent Declination
Unknown
Sunlit
N/A
Visualization observer readout
Local Sidereal Time
23:00:49
Azimuth
Unknown
Elevation
Unknown
Doppler factor
Unknown
Orbital elements
Apogee altitude
378.141 km
Perigee altitude
374.475 km
Semi-major axis
6,754.445 km
Eccentricity
0.00027
Inclination
53.0249°
RAAN
354.983°
Arg. of periapsis
295.175°
True anomaly
64.92647°
Mean anomaly
64.8983°
Eccentric anomaly
64.91238°
Mean motion
3.90984 °/min
Orbital period
92.08 mins
BSTAR
0.001032
Loading maneuver chart data...
Computing Atmospheric mass density...

Documentation

Showing up to 5 results
|